NEE-02 KRYSAOR

Last updated on Wed Sep 17 2025 00:03:48 GMT+0000 (Coordinated Universal Time)

1 39441U 13066AB 25259.26005436 .00002346 00000+0 27200-3 0 9994 2 39441 97.8589 196.1986 0066719 246.8505 112.5670 14.84843649635522
UTC large
Height (km)
Speed (km/s)
/
Latitude / Longitude
Inclination (degrees)
Orbital Period (minutes)
Azimuth
Elevation
Range (km)
Doppler Factor

Next 0 passes for location: London (51.5072 / 0.1276)

Sorry there are no passes over London.